[[{"header":{"parameterUnit":"m.s-1","parameterCategory":2,"la1":30.2991,"la2":30.254,"lo1":-89.0895,"lo2":-89.0444,"dx":0.0017,"dy":0.0017,"nx":28,"ny":28,"refTime":"2023-02-06T09:00:00:Z","depth":"0","parameterNumber":2,"parameterNumberName":"U-component_of_CURRENTS"},"data":[0,0,0,0,0,0,0,0,0,0,0,0,0,0,0,0,0,0,0,0,0,0,0,0,0,0,0,0,0,0,0,0,0,0,0,0,0,0,0,0,0,0,0,0,0,0,0,0,0,0,0,0,0,0,0,0,0,0,0.0486,0.0485,0,0.0431,0.043,0.0429,0.0409,0.041,0.041,0.041,0.0316,0.0313,0.031,0,0,0,0,0,0,0,0,0,0,0,0,0,0.0511,0.0511,0.0486,0.0485,0.0485,0.0431,0.043,0.0429,0.0409,0.041,0.041,0.041,0.0317,0.0313,0.031,0,0,0,0,0,0,0,0,0,0,0,0,0,0.0481,0.0511,0.0486,0.047,0.0468,0.0431,0.043,0.0429,0.0409,0.041,0.041,0.0411,0.0318,0.0314,0.0309,0.0272,0,0,0.0296,0.0294,0,0,0,0,0,0,0,0,0.0483,0.048,0.0473,0.0471,0.0469,0.0429,0.0405,0.0375,0.0409,0.0429,0.041,0.0411,0.0351,0.0344,0.033,0.0267,0.0263,0.0296,0.0293,0.0291,0.029,0,0,0,0,0,0,0,0.0485,0.0482,0.0462,0.0472,0.047,0.0444,0.0441,0.0399,0.0385,0.0428,0.0426,0.0423,0.0349,0.0334,0.0328,0.0262,0.0296,0.0292,0.0289,0.0288,0.0134,0.0132,0,0,0,0,0,0,0.0499,0.0484,0.0464,0.0461,0.048,0.0444,0.044,0.044,0.0387,0.038,0.0423,0.0423,0.0341,0.0333,0.0324,0.0283,0.0291,0.0287,0.0285,0.0135,0.0134,0.0132,0,0,0,0,0,0,0.0499,0.0497,0.0466,0.0472,0.0467,0.0444,0.0443,0.0438,0.0424,0.0384,0.0376,0.0414,0.0341,0.033,0.0286,0.0279,0.0285,0.0282,0.0137,0.0135,0.0133,0.0195,0,0,0,0,0,0,0.05,0.0498,0.0497,0.0474,0.0467,0.0446,0.0442,0.0437,0.0422,0.0421,0.0373,0.0365,0.0341,0.0293,0.0282,0.0273,0.0278,0.0139,0.0136,0.0133,0.0195,0.0195,0.0196,0,0,0,0,0,0.0501,0.0498,0.0497,0.0494,0.0468,0.0446,0.0439,0.0423,0.0422,0.0412,0.0381,0.0367,0.0267,0.0289,0.0276,0.0266,0.0141,0.0137,0.0134,0.0195,0.0195,0.0196,0,0,0,0,0,0,0.0501,0.0495,0.0493,0.0486,0.047,0.0443,0.0433,0.0422,0.039,0.0391,0.0353,0.0342,0.0299,0.0264,0.0289,0.0207,0.0198,0.0192,0.0249,0.0248,0.0249,0.027,0.0275,0,0,0,0,0,0.0503,0.0503,0.0488,0.0481,0.0477,0.0455,0.0443,0.0434,0.0406,0.0394,0.036,0.0315,0.0273,0.025,0.0206,0.0164,0.0151,0.0142,0.0143,0.0144,0.0148,0.0116,0.0115,0.0121,0.0121,0.0121,0,0,0.0499,0.0497,0.0494,0.0481,0.0469,0.0459,0.0448,0.0435,0.0421,0.0386,0.0352,0.0317,0.026,0.0219,0.0195,0.0191,0.0137,0.0139,0.0141,0.0145,0.0112,0.0112,0.0112,0.0118,0.0119,0.0119,0,0,0.0494,0.0492,0.0493,0.0484,0.0473,0.0459,0.0457,0.0433,0.0418,0.0382,0.0354,0.0318,0.0246,0.0214,0.0186,0.0155,0.0141,0.0131,0.0152,0.0121,0.0122,0.0122,0.013,0.013,0.0131,0.0131,0.0131,0,0.049,0.0491,0.0485,0.0485,0.0479,0.0462,0.0458,0.0436,0.0398,0.0385,0.0376,0.0285,0.0245,0.0198,0.0191,0.016,0.0152,0.0166,0.0127,0.0126,0.0125,0.0133,0.0133,0.0134,0.0133,0.0133,0.0133,0,0.0488,0.0488,0.0487,0.0486,0.0476,0.0468,0.045,0.0433,0.0414,0.0393,0.0348,0.0297,0.0247,0.0223,0.02,0.0167,0.0169,0.0138,0.014,0.013,0.0138,0.0136,0.0137,0.0136,0.0136,0.0135,0,0,0.0483,0.0486,0.0487,0.0488,0.0479,0.0469,0.0454,0.0431,0.0424,0.0382,0.0366,0.0297,0.0282,0.0248,0.0214,0.0188,0.0186,0.0167,0.0164,0.0202,0.0149,0.0247,0.0255,0.0153,0.0152,0.0151,0.0168,0,0.0484,0.0486,0.0487,0.0482,0.0481,0.0471,0.0457,0.0438,0.0417,0.0396,0.0351,0.0318,0.0287,0.0272,0.0241,0.02,0.018,0.0186,0.0129,0.0128,0.0238,0.0255,0.0366,0.0397,0.0167,0.0166,0.0166,0,0.0486,0.0487,0.0486,0.0487,0.0486,0.048,0.0468,0.0455,0.043,0.0417,0.0388,0.0358,0.0324,0.0291,0.0232,0.024,0.02,0.0167,0.0166,0.0235,0.0223,0.0361,0.0403,0.0477,0.0164,0.0164,0.0164,0,0.0487,0.0488,0.0487,0.0486,0.0482,0.0479,0.0474,0.0458,0.0452,0.0434,0.0436,0.0389,0.0374,0.0312,0.0271,0.0244,0.022,0.0167,0.0216,0.0223,0.0295,0.0311,0.0425,0.0113,0.0113,0.0113,0.0113,0,0.0489,0.049,0.0487,0.0487,0.0485,0.0484,0.0482,0.0477,0.0472,0.0471,0.0448,0.0448,0.0376,0.0358,0.0297,0.0291,0.0241,0.0239,0.0234,0.0322,0.0339,0.0387,0.0434,0.0113,0.0113,0.0113,0.0113,0,0.0494,0.0491,0.0492,0.0489,0.0487,0.0487,0.0488,0.0489,0.0494,0.0498,0.0497,0.0494,0.0499,0.0455,0.0382,0.0347,0.036,0.0307,0.0449,0.0462,0.058,0.0627,0.0647,0.0618,0.0365,0.0368,0.037,0,0.0496,0.0497,0.0494,0.0494,0.0493,0.0492,0.0493,0.0493,0.0496,0.0525,0.0529,0.0558,0.0578,0.0568,0.0554,0.0524,0.0476,0.0571,0.0528,0.0634,0.068,0.0603,0.0568,0.0648,0.0652,0.0655,0.0658,0,0.0503,0.0503,0.0505,0.0508,0.0507,0.0504,0.0505,0.0508,0.0518,0.0536,0.0573,0.0603,0.0671,0.074,0.0752,0.0713,0.066,0.0641,0.0696,0.0888,0.0864,0.082,0.061,0.0689,0.0686,0.0684,0.0682,0.0681,0.051,0.0516,0.0523,0.0527,0.0524,0.0521,0.052,0.052,0.0533,0.0552,0.0594,0.0659,0.0858,0.0924,0.0899,0.1016,0.0879,0.1005,0.1046,0.0948,0.0955,0.085,0.0956,0.0955,0.0953,0.0952,0.0951,0,0.0522,0.0534,0.0542,0.0546,0.0552,0.0542,0.0535,0.0528,0.0537,0.057,0.0604,0.085,0.1037,0.1164,0.1396,0.1428,0.1269,0.1421,0.1342,0.1271,0.1156,0.1208,0.1443,0.1443,0.1443,0.1443,0.1443,0.1443,0.0528,0.055,0.056,0.0577,0.0577,0.0572,0.0565,0.0542,0.0556,0.0634,0.0748,0.0848,0.1243,0.17,0.1891,0.1817,0.1699,0.1717,0.1593,0.1582,0.1544,0.1508,0.1565,0.1872,0.1872,0.164,0.164,0.164]},{"header":{"parameterUnit":"m.s-1","parameterCategory":2,"la1":30.2991,"la2":30.254,"lo1":-89.0895,"lo2":-89.0444,"dx":0.0017,"dy":0.0017,"nx":28,"ny":28,"refTime":"2023-02-06T09:00:00:Z","depth":"0","parameterNumber":3,"parameterNumberName":"V-component_of_CURRENTS"},"data":[0,0,0,0,0,0,0,0,0,0,0,0,0,0,0,0,0,0,0,0,0,0,0,0,0,0,0,0,0,0,0,0,0,0,0,0,0,0,0,0,0,0,0,0,0,0,0,0,0,0,0,0,0,0,0,0,0,0,-0.2266,-0.2266,0,-0.2254,-0.2254,-0.2253,-0.2245,-0.2245,-0.2245,-0.2245,-0.2249,-0.2249,-0.2249,0,0,0,0,0,0,0,0,0,0,0,0,0,-0.2258,-0.2258,-0.2266,-0.2266,-0.2266,-0.2254,-0.2254,-0.2253,-0.2245,-0.2245,-0.2245,-0.2246,-0.2249,-0.2249,-0.2249,0,0,0,0,0,0,0,0,0,0,0,0,0,-0.2253,-0.2258,-0.2266,-0.2262,-0.2261,-0.2254,-0.2254,-0.2253,-0.2245,-0.2245,-0.2245,-0.2246,-0.2249,-0.2249,-0.2249,-0.2245,0,0,-0.2249,-0.2249,0,0,0,0,0,0,0,0,-0.2253,-0.2253,-0.2262,-0.2262,-0.2262,-0.2253,-0.2252,-0.2252,-0.2245,-0.2249,-0.2246,-0.2246,-0.2253,-0.2252,-0.2247,-0.2246,-0.2246,-0.2249,-0.2249,-0.2249,-0.2249,0,0,0,0,0,0,0,-0.2254,-0.2254,-0.2259,-0.2262,-0.2262,-0.2252,-0.2252,-0.2252,-0.2249,-0.2249,-0.2249,-0.225,-0.2252,-0.2247,-0.2247,-0.2246,-0.2249,-0.2249,-0.2249,-0.2249,-0.2263,-0.2264,0,0,0,0,0,0,-0.226,-0.2254,-0.2259,-0.2259,-0.226,-0.2253,-0.2252,-0.2254,-0.2249,-0.2248,-0.225,-0.225,-0.2247,-0.2247,-0.2247,-0.2256,-0.2249,-0.2249,-0.2249,-0.2263,-0.2263,-0.2264,0,0,0,0,0,0,-0.226,-0.2261,-0.226,-0.2258,-0.2257,-0.2253,-0.2255,-0.2254,-0.225,-0.225,-0.225,-0.2248,-0.2247,-0.2247,-0.2255,-0.2256,-0.2249,-0.2249,-0.2262,-0.2263,-0.2264,-0.2266,0,0,0,0,0,0,-0.226,-0.2261,-0.2259,-0.2258,-0.2258,-0.2253,-0.2255,-0.2253,-0.2251,-0.2251,-0.2248,-0.2248,-0.2247,-0.2256,-0.2255,-0.2256,-0.2249,-0.2262,-0.2263,-0.2263,-0.2265,-0.2267,-0.2268,0,0,0,0,0,-0.226,-0.2254,-0.2259,-0.2259,-0.2257,-0.2253,-0.2252,-0.2248,-0.2251,-0.2246,-0.2254,-0.2249,-0.226,-0.2256,-0.2256,-0.2256,-0.2262,-0.2263,-0.2263,-0.2265,-0.2266,-0.2267,0,0,0,0,0,0,-0.2244,-0.2253,-0.2258,-0.2254,-0.2255,-0.2253,-0.2247,-0.2249,-0.2249,-0.2252,-0.2254,-0.2254,-0.2261,-0.2261,-0.2256,-0.2264,-0.226,-0.2261,-0.2261,-0.2262,-0.2264,-0.2248,-0.2249,0,0,0,0,0,-0.2243,-0.2244,-0.225,-0.2246,-0.2249,-0.225,-0.2247,-0.2247,-0.225,-0.225,-0.2251,-0.2256,-0.2263,-0.2265,-0.2267,-0.2272,-0.2267,-0.2273,-0.2274,-0.2274,-0.2263,-0.2275,-0.2275,-0.2267,-0.2267,-0.2267,0,0,-0.2235,-0.2241,-0.224,-0.2244,-0.2245,-0.2239,-0.2248,-0.2246,-0.2241,-0.2251,-0.2246,-0.2258,-0.2266,-0.2271,-0.2273,-0.2271,-0.2273,-0.2276,-0.2276,-0.2264,-0.2276,-0.2276,-0.2277,-0.2267,-0.2267,-0.2267,0,0,-0.222,-0.2228,-0.2224,-0.2225,-0.223,-0.2231,-0.2232,-0.2234,-0.2235,-0.2236,-0.2247,-0.2262,-0.2263,-0.2273,-0.2278,-0.2287,-0.2278,-0.2289,-0.2281,-0.2293,-0.2294,-0.2294,-0.2281,-0.228,-0.229,-0.229,-0.229,0,-0.2209,-0.2206,-0.2221,-0.2216,-0.2209,-0.2227,-0.2214,-0.222,-0.2224,-0.2224,-0.2234,-0.2248,-0.2262,-0.2271,-0.228,-0.2288,-0.2285,-0.2275,-0.2294,-0.2294,-0.2295,-0.2281,-0.228,-0.229,-0.229,-0.229,-0.229,0,-0.2192,-0.2186,-0.2184,-0.2184,-0.218,-0.2173,-0.2185,-0.2186,-0.2195,-0.22,-0.221,-0.2236,-0.2243,-0.2258,-0.2273,-0.2285,-0.2278,-0.2294,-0.2288,-0.2295,-0.2281,-0.228,-0.2291,-0.2291,-0.229,-0.229,0,0,-0.2166,-0.217,-0.2167,-0.2156,-0.2161,-0.2152,-0.2153,-0.2151,-0.2143,-0.2167,-0.2158,-0.2197,-0.2216,-0.2224,-0.2251,-0.2269,-0.228,-0.2284,-0.2284,-0.2265,-0.2287,-0.2247,-0.2242,-0.2302,-0.2302,-0.2302,-0.2272,0,-0.2143,-0.2122,-0.2131,-0.2104,-0.2091,-0.2105,-0.2098,-0.2103,-0.2111,-0.2109,-0.2152,-0.2155,-0.2203,-0.2207,-0.2239,-0.2266,-0.2279,-0.2285,-0.2286,-0.2285,-0.2246,-0.224,-0.2209,-0.2177,-0.2271,-0.2271,-0.2271,0,-0.2114,-0.2104,-0.2073,-0.2057,-0.2053,-0.204,-0.2022,-0.2021,-0.2036,-0.2045,-0.2069,-0.2095,-0.2131,-0.217,-0.2219,-0.2221,-0.2252,-0.2275,-0.2275,-0.2233,-0.2244,-0.2187,-0.2171,-0.218,-0.2269,-0.2269,-0.2269,0,-0.2072,-0.2058,-0.2028,-0.2022,-0.2012,-0.1999,-0.1994,-0.1997,-0.1987,-0.2001,-0.199,-0.2041,-0.2051,-0.2111,-0.2169,-0.2195,-0.2207,-0.2249,-0.2236,-0.2232,-0.2202,-0.2195,-0.2189,-0.2275,-0.2275,-0.2275,-0.2275,0,-0.2031,-0.2005,-0.2006,-0.1987,-0.1949,-0.1959,-0.1923,-0.1926,-0.1926,-0.1902,-0.1956,-0.194,-0.2038,-0.2061,-0.2134,-0.2165,-0.2179,-0.2219,-0.2222,-0.22,-0.2195,-0.2197,-0.2202,-0.2274,-0.2274,-0.2275,-0.2275,0,-0.1975,-0.1979,-0.1943,-0.1931,-0.1925,-0.1895,-0.1876,-0.1854,-0.186,-0.1828,-0.1829,-0.1857,-0.1878,-0.1956,-0.2027,-0.2095,-0.2161,-0.215,-0.2101,-0.2099,-0.2109,-0.2115,-0.2164,-0.2233,-0.2137,-0.2136,-0.2135,0,-0.1939,-0.1916,-0.1895,-0.1871,-0.1861,-0.183,-0.1811,-0.1818,-0.1795,-0.1769,-0.1748,-0.175,-0.1734,-0.1809,-0.1927,-0.2013,-0.2089,-0.2039,-0.2094,-0.2087,-0.2096,-0.2179,-0.2242,-0.2053,-0.2051,-0.205,-0.2049,0,-0.1865,-0.1861,-0.1834,-0.1797,-0.177,-0.1739,-0.1713,-0.169,-0.1689,-0.1647,-0.1594,-0.1572,-0.1639,-0.1683,-0.1793,-0.1887,-0.2066,-0.2014,-0.2031,-0.2037,-0.2104,-0.2178,-0.208,-0.2037,-0.2038,-0.2039,-0.204,-0.204,-0.1801,-0.177,-0.1745,-0.1706,-0.1682,-0.1645,-0.1601,-0.1569,-0.1512,-0.1408,-0.1435,-0.1296,-0.1408,-0.1554,-0.1726,-0.191,-0.1986,-0.1951,-0.1958,-0.2045,-0.2111,-0.1967,-0.1916,-0.1917,-0.1917,-0.1917,-0.1918,0,-0.1716,-0.1692,-0.1655,-0.1612,-0.1575,-0.1582,-0.1529,-0.1461,-0.1365,-0.1225,-0.1138,-0.0941,-0.1128,-0.1325,-0.1576,-0.1763,-0.1992,-0.1875,-0.1985,-0.2059,-0.1931,-0.1924,-0.1843,-0.1843,-0.1843,-0.1843,-0.1843,-0.1843,-0.1665,-0.1611,-0.1604,-0.1524,-0.1496,-0.1419,-0.1378,-0.1264,-0.1136,-0.0817,-0.0551,-0.0383,-0.0283,-0.0952,-0.1381,-0.1595,-0.1851,-0.1929,-0.2038,-0.1907,-0.1916,-0.1925,-0.1921,-0.1841,-0.1841,-0.2218,-0.222,-0.2222]}],[{"header":{"parameterUnit":"m.s-1","parameterCategory":2,"la1":30.2991,"la2":30.254,"lo1":-89.0895,"lo2":-89.0444,"dx":0.0017,"dy":0.0017,"nx":28,"ny":28,"refTime":"2023-02-06T09:00:00:Z","depth":"2","parameterNumber":2,"parameterNumberName":"U-component_of_CURRENTS"},"data":[0,0,0,0,0,0,0,0,0,0,0,0,0,0,0,0,0,0,0,0,0,0,0,0,0,0,0,0,0,0,0,0,0,0,0,0,0,0,0,0,0,0,0,0,0,0,0,0,0,0,0,0,0,0,0,0,0,0,-0.1322,-0.1322,0,-0.1322,-0.1322,-0.1322,-0.1338,-0.1339,-0.134,-0.134,-0.1257,-0.1254,-0.1251,0,0,0,0,0,0,0,0,0,0,0,0,0,-0.1249,-0.125,-0.1322,-0.1322,-0.1323,-0.1322,-0.1322,-0.1322,-0.1338,-0.1339,-0.134,-0.1341,-0.1257,-0.1254,-0.1251,0,0,0,0,0,0,0,0,0,0,0,0,0,-0.1265,-0.1251,-0.1322,-0.1333,-0.1334,-0.1322,-0.1322,-0.1322,-0.1338,-0.1339,-0.134,-0.1341,-0.1259,-0.1254,-0.125,-0.1202,0,0,-0.1237,-0.1235,0,0,0,0,0,0,0,0,-0.1264,-0.1268,-0.1331,-0.1332,-0.1334,-0.1334,-0.1266,-0.1278,-0.1338,-0.1333,-0.134,-0.1342,-0.1276,-0.127,-0.1265,-0.1198,-0.1195,-0.1236,-0.1234,-0.1232,-0.1231,0,0,0,0,0,0,0,-0.1263,-0.1267,-0.1319,-0.1331,-0.1333,-0.1308,-0.1312,-0.1268,-0.1295,-0.1334,-0.1336,-0.134,-0.1276,-0.1269,-0.1263,-0.1193,-0.1237,-0.1233,-0.123,-0.1228,-0.0976,-0.0972,0,0,0,0,0,0,-0.1273,-0.1267,-0.1319,-0.1319,-0.1304,-0.1309,-0.1313,-0.133,-0.1297,-0.1295,-0.1339,-0.1341,-0.1276,-0.1268,-0.126,-0.1131,-0.1232,-0.1228,-0.1225,-0.098,-0.0975,-0.097,0,0,0,0,0,0,-0.1272,-0.1278,-0.1319,-0.1294,-0.1298,-0.131,-0.1328,-0.133,-0.132,-0.1303,-0.1298,-0.1328,-0.1276,-0.1266,-0.1188,-0.1131,-0.1226,-0.1222,-0.0985,-0.0978,-0.0973,-0.0918,0,0,0,0,0,0,-0.127,-0.1278,-0.1291,-0.1296,-0.13,-0.1294,-0.1328,-0.1329,-0.1323,-0.1325,-0.1291,-0.1285,-0.1276,-0.1194,-0.1184,-0.1126,-0.1219,-0.099,-0.0982,-0.0975,-0.0925,-0.091,-0.0898,0,0,0,0,0,-0.1267,-0.1272,-0.1292,-0.1299,-0.132,-0.1292,-0.129,-0.13,-0.1321,-0.1299,-0.1267,-0.1286,-0.1137,-0.1188,-0.1176,-0.1116,-0.0994,-0.0984,-0.0975,-0.0931,-0.0913,-0.0898,0,0,0,0,0,0,-0.1244,-0.1274,-0.1297,-0.1312,-0.1299,-0.1296,-0.1285,-0.1292,-0.1254,-0.1252,-0.1242,-0.1231,-0.1137,-0.1124,-0.118,-0.1014,-0.1064,-0.1052,-0.1034,-0.1017,-0.1004,-0.0982,-0.1215,0,0,0,0,0,-0.1249,-0.1265,-0.1274,-0.1284,-0.1278,-0.1281,-0.1275,-0.1273,-0.1246,-0.1233,-0.12,-0.1151,-0.1088,-0.1055,-0.0998,-0.0916,-0.0907,-0.0862,-0.0848,-0.0838,-0.0806,-0.0756,-0.0737,-0.094,-0.094,-0.094,0,0,-0.1246,-0.1264,-0.1275,-0.128,-0.1277,-0.1232,-0.1278,-0.1253,-0.1198,-0.1224,-0.1131,-0.1104,-0.1053,-0.0955,-0.0911,-0.0941,-0.0773,-0.0826,-0.0818,-0.0791,-0.0745,-0.0726,-0.0709,-0.0934,-0.0935,-0.0936,0,0,-0.1218,-0.1258,-0.1247,-0.1226,-0.1214,-0.1201,-0.1189,-0.1163,-0.1137,-0.1052,-0.1046,-0.0978,-0.0892,-0.0837,-0.0802,-0.0673,-0.0704,-0.0659,-0.0579,-0.0532,-0.0516,-0.0502,-0.0473,-0.0457,-0.0656,-0.0656,-0.0655,0,-0.1217,-0.1202,-0.1232,-0.1193,-0.1163,-0.1178,-0.1119,-0.1083,-0.1026,-0.0983,-0.1005,-0.0855,-0.0824,-0.0699,-0.0652,-0.0644,-0.0637,-0.0659,-0.052,-0.0505,-0.0492,-0.0466,-0.0449,-0.0652,-0.0652,-0.0653,-0.0653,0,-0.1159,-0.114,-0.1122,-0.1083,-0.1048,-0.1001,-0.0958,-0.0906,-0.0882,-0.0845,-0.0727,-0.0685,-0.0601,-0.0576,-0.0574,-0.0448,-0.0482,-0.0517,-0.0576,-0.0469,-0.0447,-0.0431,-0.0646,-0.0648,-0.0649,-0.065,0,0,-0.1168,-0.1099,-0.109,-0.105,-0.0983,-0.0949,-0.0844,-0.0755,-0.0694,-0.0627,-0.0534,-0.0422,-0.0428,-0.0384,-0.0381,-0.0333,-0.024,-0.0381,-0.038,-0.0379,-0.0151,-0.0116,-0.0096,-0.0272,-0.0269,-0.0266,-0.0179,0,-0.1109,-0.1023,-0.0991,-0.0883,-0.083,-0.0789,-0.0695,-0.0616,-0.0559,-0.047,-0.0414,-0.0329,-0.0349,-0.0324,-0.0268,-0.025,-0.0191,-0.026,-0.0228,-0.0226,-0.0232,-0.0072,-0.0156,-0.008,-0.0163,-0.0161,-0.0159,0,-0.1048,-0.1,-0.0892,-0.079,-0.0762,-0.0692,-0.0569,-0.0489,-0.0372,-0.0331,-0.0244,-0.0219,-0.011,-0.0167,-0.0059,-0.0114,-0.0102,-0.0099,-0.0097,-0.0065,-0.0158,-0.0194,-0.0047,-0.0131,-0.0133,-0.0135,-0.0137,0,-0.1035,-0.0925,-0.084,-0.0802,-0.0687,-0.0623,-0.056,-0.0444,-0.038,-0.0252,-0.0211,-0.0091,-0.0052,0.0002,0.0032,-0.0018,0.0126,0.0047,0.0099,0.0098,0.0041,0.0032,0.015,0.015,0.015,0.015,0.015,0,-0.0982,-0.0914,-0.0833,-0.0786,-0.0686,-0.0612,-0.0503,-0.0425,-0.0321,-0.025,-0.0156,-0.0105,-0.0011,0.007,0.0087,0.0169,0.0175,0.0171,0.0153,0.0061,0.0052,0.0012,-0.0005,0.0153,0.0152,0.0152,0.0151,0,-0.0968,-0.0915,-0.0822,-0.0712,-0.0677,-0.0611,-0.0501,-0.0432,-0.034,-0.0248,-0.021,-0.0092,0.0015,0.012,0.0212,0.0236,0.0305,0.0327,0.0217,0.0188,0.0222,0.0208,0.0399,0.0402,0.0404,0.0406,0.0407,0,-0.0945,-0.0895,-0.0795,-0.075,-0.0698,-0.0606,-0.0545,-0.0448,-0.0401,-0.0267,-0.0241,-0.0088,-0.003,0.016,0.0298,0.0416,0.0377,0.0384,0.0306,0.0301,0.0263,0.0244,0.0227,0.0232,0.0232,0.0232,0.0232,0,-0.089,-0.0864,-0.0799,-0.0729,-0.0664,-0.0605,-0.0532,-0.0514,-0.0412,-0.0352,-0.0293,-0.0236,-0.0014,0.0121,0.0343,0.0357,0.0368,0.0389,0.0439,0.0193,0.0155,0.0113,0.0099,0.0232,0.0232,0.0232,0.0232,0.0232,-0.085,-0.0808,-0.0738,-0.0673,-0.0624,-0.0604,-0.056,-0.0517,-0.0469,-0.0348,-0.0343,-0.0202,-0.0089,0.0245,0.0313,0.0428,0.0429,0.0373,0.0368,0.0364,0.0341,0.031,0.0411,0.0412,0.0413,0.0414,0.0414,0,-0.0775,-0.0732,-0.0678,-0.0618,-0.0594,-0.0562,-0.0535,-0.0495,-0.0452,-0.0319,-0.0243,-0.0119,-0.0003,0.0159,0.036,0.0412,0.0336,0.0358,0.0248,0.0247,0.0247,0.0214,0.0252,0.0252,0.0252,0.0253,0,0,-0.0718,-0.0652,-0.0638,-0.0586,-0.0555,-0.0506,-0.0488,-0.043,-0.0333,-0.02,-0.0058,0.0022,0.0115,0.021,0.023,0.0298,0.0252,0.0254,0.037,0.0236,0.0236,0.0232,0.0179,0,0,0,0,0]},{"header":{"parameterUnit":"m.s-1","parameterCategory":2,"la1":30.2991,"la2":30.254,"lo1":-89.0895,"lo2":-89.0444,"dx":0.0017,"dy":0.0017,"nx":28,"ny":28,"refTime":"2023-02-06T09:00:00:Z","depth":"2","parameterNumber":3,"parameterNumberName":"V-component_of_CURRENTS"},"data":[0,0,0,0,0,0,0,0,0,0,0,0,0,0,0,0,0,0,0,0,0,0,0,0,0,0,0,0,0,0,0,0,0,0,0,0,0,0,0,0,0,0,0,0,0,0,0,0,0,0,0,0,0,0,0,0,0,0,0.0335,0.0337,0,0.0461,0.0462,0.0463,0.0574,0.0575,0.0577,0.0578,0.0678,0.0679,0.068,0,0,0,0,0,0,0,0,0,0,0,0,0,0.021,0.0211,0.0335,0.0337,0.0338,0.0461,0.0462,0.0464,0.0574,0.0575,0.0577,0.0578,0.0677,0.0679,0.068,0,0,0,0,0,0,0,0,0,0,0,0,0,0.0291,0.0212,0.0335,0.0409,0.0417,0.046,0.0462,0.0464,0.0573,0.0575,0.0577,0.0579,0.0677,0.0679,0.0681,0.0653,0,0,0.0687,0.0688,0,0,0,0,0,0,0,0,0.0287,0.0296,0.0396,0.0404,0.0413,0.0505,0.0455,0.0526,0.0573,0.0513,0.0578,0.058,0.0616,0.0624,0.0642,0.0657,0.0662,0.0687,0.0688,0.0689,0.069,0,0,0,0,0,0,0,0.0281,0.0291,0.0384,0.0398,0.0408,0.0442,0.0456,0.0469,0.055,0.0518,0.0527,0.0542,0.0621,0.0639,0.0645,0.0663,0.0687,0.0689,0.069,0.0691,0.0698,0.0697,0,0,0,0,0,0,0.0264,0.0285,0.038,0.0388,0.0354,0.0443,0.0458,0.0472,0.0551,0.0566,0.054,0.0546,0.0635,0.0642,0.0649,0.0669,0.0689,0.0691,0.0692,0.0699,0.0698,0.0697,0,0,0,0,0,0,0.0261,0.0271,0.0375,0.034,0.0356,0.0443,0.0458,0.0474,0.0514,0.0568,0.0582,0.0566,0.0637,0.0646,0.067,0.0672,0.0692,0.0694,0.07,0.0699,0.0697,0.0678,0,0,0,0,0,0,0.0257,0.0269,0.0282,0.0339,0.0358,0.0408,0.0457,0.0475,0.0519,0.0529,0.0594,0.0605,0.0639,0.0667,0.0672,0.0675,0.0696,0.0702,0.07,0.0698,0.068,0.0676,0.0672,0,0,0,0,0,0.0252,0.0262,0.0281,0.0294,0.0369,0.0408,0.0421,0.0488,0.0518,0.0532,0.0573,0.0604,0.0658,0.0668,0.0674,0.0678,0.0703,0.07,0.0698,0.0681,0.0676,0.0672,0,0,0,0,0,0,0.0219,0.0276,0.0299,0.0328,0.0366,0.0428,0.0456,0.0487,0.0531,0.0547,0.0594,0.0606,0.0625,0.0644,0.0653,0.067,0.0684,0.0682,0.0669,0.0664,0.066,0.0655,0.0697,0,0,0,0,0,0.0212,0.0237,0.0287,0.0311,0.0332,0.039,0.0418,0.0456,0.0499,0.0523,0.0561,0.0595,0.0614,0.0635,0.0652,0.0663,0.0674,0.0665,0.0662,0.0659,0.0656,0.0695,0.0696,0.0689,0.0689,0.0689,0,0,0.0209,0.0241,0.0259,0.0306,0.0347,0.0378,0.0413,0.0454,0.0481,0.0521,0.0566,0.058,0.061,0.0626,0.0636,0.065,0.0656,0.0656,0.0653,0.0652,0.0693,0.0694,0.0695,0.0687,0.0688,0.0688,0,0,0.0215,0.0241,0.0269,0.0296,0.0349,0.0375,0.0385,0.044,0.0471,0.0494,0.053,0.0547,0.0578,0.0606,0.0622,0.0601,0.0629,0.0601,0.0592,0.063,0.0632,0.0633,0.0608,0.0608,0.0608,0.0608,0.0608,0,0.0217,0.0253,0.0281,0.0311,0.0341,0.0372,0.0405,0.0428,0.0481,0.05,0.0505,0.0543,0.057,0.0596,0.0589,0.0597,0.0601,0.0613,0.0628,0.063,0.0632,0.0607,0.0607,0.0607,0.0607,0.0607,0.0607,0,0.0243,0.0277,0.0293,0.0341,0.0365,0.0395,0.0426,0.0444,0.0466,0.0491,0.0509,0.0526,0.0557,0.0555,0.0569,0.059,0.0579,0.0615,0.0646,0.0632,0.0605,0.0606,0.0605,0.0605,0.0606,0.0606,0,0,0.0249,0.0305,0.0315,0.0344,0.0386,0.0409,0.0432,0.0468,0.0497,0.0502,0.0537,0.0536,0.0542,0.0556,0.0568,0.0587,0.0591,0.0604,0.0607,0.0588,0.063,0.0536,0.0527,0.0642,0.0643,0.0644,0.059,0,0.0274,0.0327,0.0349,0.0398,0.0429,0.0452,0.0475,0.0501,0.0519,0.055,0.0546,0.0576,0.0545,0.0563,0.0572,0.0605,0.0598,0.0598,0.0637,0.0637,0.0565,0.0528,0.0496,0.044,0.0591,0.0591,0.0591,0,0.03,0.0334,0.0386,0.0436,0.0454,0.048,0.0524,0.0549,0.0579,0.0594,0.0598,0.0606,0.0614,0.0603,0.061,0.0615,0.0609,0.0613,0.0613,0.0537,0.0545,0.0485,0.0435,0.0592,0.0592,0.0592,0.0592,0,0.0294,0.036,0.0401,0.042,0.0476,0.0503,0.053,0.0565,0.0597,0.0628,0.0653,0.0651,0.0671,0.0662,0.0633,0.0644,0.0634,0.0667,0.0553,0.0545,0.0529,0.0517,0.0662,0.0662,0.0662,0.0662,0.0662,0,0.0306,0.0345,0.0405,0.043,0.0482,0.0514,0.0569,0.0592,0.0638,0.0674,0.0678,0.0688,0.0695,0.0681,0.0647,0.0575,0.0643,0.0528,0.0531,0.0512,0.05,0.0657,0.0657,0.066,0.0661,0.0661,0.0661,0,0.0298,0.0337,0.0392,0.0459,0.0483,0.052,0.0596,0.0632,0.067,0.0717,0.0731,0.074,0.0708,0.0669,0.0659,0.0593,0.0544,0.05,0.0432,0.0426,0.0421,0.042,0.0378,0.0374,0.0371,0.0368,0.0366,0,0.0299,0.0325,0.0409,0.0448,0.0486,0.0547,0.059,0.0641,0.0674,0.0728,0.0744,0.0737,0.0665,0.0569,0.0494,0.0386,0.0454,0.0302,0.0314,0.0387,0.0395,0.0399,0.0402,0.0272,0.0269,0.0267,0.0265,0,0.0302,0.0336,0.038,0.0461,0.0517,0.0568,0.0627,0.0642,0.0694,0.0714,0.0701,0.0644,0.0549,0.0411,0.0279,0.0222,0.0316,0.0248,0.0384,0.0337,0.028,0.029,0.0299,0.0245,0.0247,0.0249,0.025,0.025,0.0312,0.0335,0.0401,0.0475,0.0537,0.0566,0.0573,0.0608,0.0614,0.0607,0.0583,0.0478,0.0385,0.0146,0.0093,0.0098,0.0117,0.0116,0.0127,0.014,0.0125,0.0065,-0.0016,-0.0016,-0.0016,-0.0015,-0.0015,0,0.0324,0.0361,0.0415,0.0476,0.0507,0.0578,0.0588,0.0546,0.0507,0.0519,0.0446,0.0226,0.0075,0.0054,0.0011,-0.0059,-0.0015,-0.0041,0.0047,0.0063,0.0079,0.0067,-0.0092,-0.0092,-0.0092,-0.0092,0,0,0.0334,0.0366,0.0381,0.0423,0.0487,0.0505,0.0496,0.0419,0.0387,0.0298,0.0259,0.0117,0.0057,-0.0012,-0.0063,-0.0037,0.0039,-0.0045,0.0013,0.0139,0.0157,0.015,0.0146,0,0,0,0,0]}],[{"header":{"parameterUnit":"m.s-1","parameterCategory":2,"la1":30.2991,"la2":30.254,"lo1":-89.0895,"lo2":-89.0444,"dx":0.0017,"dy":0.0017,"nx":28,"ny":28,"refTime":"2023-02-06T09:00:00:Z","depth":"4","parameterNumber":2,"parameterNumberName":"U-component_of_CURRENTS"},"data":[0,0,0,0,0,0,0,0,0,0,0,0,0,0,0,0,0,0,0,0,0,0,0,0,0,0,0,0,0,0,0,0,0,0,0,0,0,0,0,0,0,0,0,0,0,0,0,0,0,0,0,0,0,0,0,0,0,0,-0.0528,-0.0528,0,-0.0541,-0.0541,-0.0541,-0.0556,-0.0557,-0.0557,-0.0557,-0.0569,-0.0569,-0.057,0,0,0,0,0,0,0,0,0,0,0,0,0,-0.0525,-0.0525,-0.0528,-0.0528,-0.0528,-0.0541,-0.0541,-0.0542,-0.0556,-0.0557,-0.0557,-0.0557,-0.0569,-0.0569,-0.057,0,0,0,0,0,0,0,0,0,0,0,0,0,-0.0532,-0.0525,-0.0528,-0.0536,-0.0536,-0.0541,-0.0541,-0.0542,-0.0556,-0.0557,-0.0557,-0.0557,-0.0569,-0.0569,-0.057,-0.057,0,0,-0.0571,-0.0571,0,0,0,0,0,0,0,0,-0.0532,-0.0533,-0.0534,-0.0535,-0.0536,-0.0546,-0.0545,-0.0551,-0.0556,-0.0551,-0.0557,-0.0557,-0.056,-0.0561,-0.0566,-0.0571,-0.0571,-0.0571,-0.0571,-0.0571,-0.0572,0,0,0,0,0,0,0,-0.0531,-0.0532,-0.0535,-0.0534,-0.0535,-0.0542,-0.0543,-0.0546,-0.0556,-0.0551,-0.0552,-0.0551,-0.0561,-0.0565,-0.0566,-0.0571,-0.0571,-0.0571,-0.0572,-0.0572,-0.0614,-0.0615,0,0,0,0,0,0,-0.0526,-0.0532,-0.0534,-0.0535,-0.0532,-0.0541,-0.0543,-0.0544,-0.0556,-0.0557,-0.055,-0.0551,-0.0565,-0.0566,-0.0567,-0.059,-0.0571,-0.0572,-0.0572,-0.0613,-0.0614,-0.0615,0,0,0,0,0,0,-0.0526,-0.0526,-0.0534,-0.0532,-0.0533,-0.0541,-0.0542,-0.0544,-0.0554,-0.0555,-0.0557,-0.0559,-0.0565,-0.0566,-0.0575,-0.0589,-0.0572,-0.0572,-0.0612,-0.0614,-0.0615,-0.0621,0,0,0,0,0,0,-0.0526,-0.0526,-0.053,-0.0532,-0.0533,-0.054,-0.0542,-0.0544,-0.0552,-0.0553,-0.0563,-0.0564,-0.0565,-0.0574,-0.0575,-0.0589,-0.0573,-0.0611,-0.0613,-0.0614,-0.062,-0.0622,-0.0625,0,0,0,0,0,-0.0526,-0.0528,-0.053,-0.0531,-0.0537,-0.054,-0.0542,-0.0548,-0.0552,-0.0558,-0.0565,-0.0564,-0.0586,-0.0575,-0.0576,-0.0591,-0.061,-0.0612,-0.0614,-0.0619,-0.0622,-0.0625,0,0,0,0,0,0,-0.053,-0.053,-0.0532,-0.0535,-0.0539,-0.0542,-0.0547,-0.0551,-0.0562,-0.0565,-0.0568,-0.0569,-0.0586,-0.0588,-0.0575,-0.061,-0.0601,-0.0604,-0.0604,-0.0607,-0.061,-0.0596,-0.0573,0,0,0,0,0,-0.0531,-0.0534,-0.0535,-0.0538,-0.054,-0.0545,-0.0549,-0.0553,-0.0559,-0.0564,-0.0567,-0.0578,-0.0595,-0.0599,-0.0611,-0.0621,-0.0613,-0.0635,-0.0638,-0.064,-0.0631,-0.0638,-0.064,-0.0622,-0.0622,-0.0622,0,0,-0.0534,-0.0534,-0.0536,-0.0539,-0.0543,-0.0547,-0.0549,-0.0555,-0.0561,-0.0563,-0.0572,-0.0585,-0.0601,-0.0618,-0.0626,-0.062,-0.064,-0.0642,-0.0644,-0.0633,-0.064,-0.0642,-0.0643,-0.0623,-0.0623,-0.0623,0,0,-0.0535,-0.0541,-0.0542,-0.0545,-0.0549,-0.0553,-0.0555,-0.0559,-0.0566,-0.0574,-0.0585,-0.0599,-0.0617,-0.0628,-0.0639,-0.066,-0.0655,-0.0677,-0.0673,-0.0681,-0.0682,-0.0683,-0.0667,-0.0666,-0.0675,-0.0675,-0.0675,0,-0.0537,-0.0537,-0.0543,-0.0544,-0.0545,-0.0555,-0.0556,-0.0566,-0.0572,-0.0574,-0.0577,-0.0606,-0.0619,-0.0642,-0.0656,-0.0664,-0.0663,-0.0659,-0.0682,-0.0683,-0.0684,-0.0667,-0.0666,-0.0676,-0.0676,-0.0676,-0.0676,0,-0.0536,-0.0539,-0.054,-0.0544,-0.0549,-0.0552,-0.0561,-0.0568,-0.0575,-0.058,-0.0598,-0.0614,-0.0627,-0.0646,-0.0659,-0.0679,-0.0674,-0.0685,-0.067,-0.0686,-0.0667,-0.0666,-0.0677,-0.0676,-0.0676,-0.0676,0,0,-0.0531,-0.0537,-0.0538,-0.0536,-0.0548,-0.0548,-0.0561,-0.0568,-0.057,-0.0585,-0.0584,-0.0623,-0.0627,-0.064,-0.066,-0.0671,-0.0678,-0.0684,-0.0684,-0.0657,-0.0682,-0.0577,-0.0565,-0.07,-0.07,-0.07,-0.0663,0,-0.0527,-0.0524,-0.0532,-0.0532,-0.053,-0.0543,-0.055,-0.056,-0.0569,-0.0571,-0.0593,-0.0603,-0.0629,-0.0635,-0.0654,-0.0675,-0.0678,-0.0686,-0.0678,-0.0677,-0.0574,-0.0561,-0.07,-0.0662,-0.0662,-0.0662,-0.0662,0,-0.052,-0.0518,-0.0517,-0.0516,-0.0517,-0.0521,-0.0525,-0.0533,-0.0547,-0.0552,-0.0566,-0.058,-0.0601,-0.0619,-0.0646,-0.0654,-0.0666,-0.0678,-0.0677,-0.0573,-0.057,-0.0647,-0.0659,-0.066,-0.066,-0.066,-0.066,0,-0.0503,-0.0504,-0.0501,-0.0503,-0.0509,-0.0509,-0.0513,-0.0524,-0.0525,-0.0536,-0.0531,-0.0559,-0.0563,-0.0593,-0.0619,-0.0637,-0.0638,-0.0661,-0.0571,-0.0564,-0.0668,-0.0668,-0.0669,-0.0669,-0.067,-0.067,-0.067,0,-0.0487,-0.0484,-0.0491,-0.0488,-0.048,-0.0491,-0.0484,-0.0492,-0.0498,-0.049,-0.0518,-0.0509,-0.056,-0.0568,-0.0601,-0.0566,-0.062,-0.0552,-0.0543,-0.0671,-0.0672,-0.0666,-0.0667,-0.0668,-0.0669,-0.0669,-0.0669,0,-0.0466,-0.0474,-0.0469,-0.0473,-0.0471,-0.0465,-0.0462,-0.0454,-0.0466,-0.0454,-0.0454,-0.0469,-0.0461,-0.0494,-0.0525,-0.0515,-0.0513,-0.0492,-0.0601,-0.0603,-0.0438,-0.0439,-0.0372,-0.0368,-0.0365,-0.0362,-0.0359,0,-0.0452,-0.045,-0.0454,-0.0445,-0.0445,-0.0437,-0.0428,-0.0437,-0.0428,-0.0422,-0.0409,-0.0395,-0.0401,-0.0359,-0.0399,-0.0404,-0.0413,-0.0397,-0.0435,-0.0407,-0.0406,-0.0413,-0.0419,-0.0354,-0.0353,-0.0352,-0.0351,0,-0.0426,-0.0436,-0.0433,-0.0419,-0.0407,-0.0388,-0.0375,-0.0363,-0.0367,-0.0382,-0.0346,-0.0322,-0.0292,-0.0299,-0.0288,-0.031,-0.04,-0.0361,-0.0369,-0.0405,-0.0384,-0.0388,-0.0398,-0.0339,-0.0341,-0.0342,-0.0343,0,-0.041,-0.0402,-0.0403,-0.0383,-0.0367,-0.0332,-0.0334,-0.031,-0.0301,-0.0302,-0.0286,-0.0279,-0.0291,-0.0246,-0.0252,-0.0235,-0.0235,-0.0239,-0.0254,-0.0267,-0.0246,-0.0206,-0.008,0,0,0,0,0,-0.0389,-0.0375,-0.036,-0.0329,-0.0312,-0.0297,-0.0292,-0.0297,-0.0303,-0.0263,-0.0273,-0.0246,-0.0202,-0.02,-0.0161,-0.0187,-0.0236,-0.0136,-0.025,-0.0272,-0.0286,-0.0269,0,0,0,0,0,0,-0.0372,-0.0365,-0.0352,-0.0289,-0.0253,-0.0223,-0.0216,-0.0222,-0.0206,-0.022,-0.0209,-0.0206,-0.0185,-0.0222,-0.015,-0.0145,-0.0202,-0.0132,-0.013,-0.0264,-0.0277,-0.0288,-0.0276,0,0,0,0,0]},{"header":{"parameterUnit":"m.s-1","parameterCategory":2,"la1":30.2991,"la2":30.254,"lo1":-89.0895,"lo2":-89.0444,"dx":0.0017,"dy":0.0017,"nx":28,"ny":28,"refTime":"2023-02-06T09:00:00:Z","depth":"4","parameterNumber":3,"parameterNumberName":"V-component_of_CURRENTS"},"data":[0,0,0,0,0,0,0,0,0,0,0,0,0,0,0,0,0,0,0,0,0,0,0,0,0,0,0,0,0,0,0,0,0,0,0,0,0,0,0,0,0,0,0,0,0,0,0,0,0,0,0,0,0,0,0,0,0,0,-0.0184,-0.0184,0,-0.02,-0.0201,-0.0201,-0.0205,-0.0204,-0.0204,-0.0204,-0.0208,-0.0208,-0.0208,0,0,0,0,0,0,0,0,0,0,0,0,0,-0.0163,-0.0163,-0.0184,-0.0184,-0.0184,-0.02,-0.0201,-0.0201,-0.0205,-0.0204,-0.0204,-0.0204,-0.0207,-0.0208,-0.0208,0,0,0,0,0,0,0,0,0,0,0,0,0,-0.0176,-0.0163,-0.0184,-0.0187,-0.0187,-0.02,-0.0201,-0.0201,-0.0205,-0.0204,-0.0204,-0.0204,-0.0207,-0.0208,-0.0208,-0.0219,0,0,-0.021,-0.021,0,0,0,0,0,0,0,0,-0.0175,-0.0177,-0.0186,-0.0187,-0.0187,-0.0199,-0.0194,-0.0206,-0.0205,-0.02,-0.0204,-0.0204,-0.0203,-0.0204,-0.021,-0.0219,-0.0219,-0.021,-0.021,-0.021,-0.021,0,0,0,0,0,0,0,-0.0174,-0.0176,-0.0192,-0.0186,-0.0187,-0.019,-0.0191,-0.0197,-0.0204,-0.02,-0.02,-0.02,-0.0203,-0.0209,-0.021,-0.0219,-0.021,-0.021,-0.0211,-0.0211,-0.0249,-0.0249,0,0,0,0,0,0,-0.017,-0.0175,-0.0191,-0.0192,-0.0179,-0.019,-0.0192,-0.0197,-0.0204,-0.0205,-0.02,-0.02,-0.0209,-0.0209,-0.021,-0.0239,-0.021,-0.0211,-0.0211,-0.0248,-0.0249,-0.025,0,0,0,0,0,0,-0.0169,-0.0171,-0.0191,-0.0183,-0.0185,-0.0191,-0.0196,-0.0197,-0.0207,-0.0204,-0.0204,-0.0209,-0.0208,-0.0209,-0.0219,-0.0239,-0.0211,-0.0211,-0.0247,-0.0248,-0.0249,-0.0287,0,0,0,0,0,0,-0.0169,-0.0171,-0.0178,-0.0183,-0.0185,-0.0202,-0.0196,-0.0198,-0.0207,-0.0207,-0.0212,-0.0212,-0.0208,-0.0219,-0.022,-0.0239,-0.0212,-0.0246,-0.0248,-0.0249,-0.0285,-0.0289,-0.0293,0,0,0,0,0,-0.0168,-0.0177,-0.0178,-0.018,-0.0193,-0.0202,-0.0205,-0.0208,-0.0208,-0.0216,-0.0218,-0.0212,-0.0228,-0.022,-0.0221,-0.024,-0.0246,-0.0247,-0.0249,-0.0283,-0.0289,-0.0293,0,0,0,0,0,0,-0.0174,-0.0179,-0.018,-0.0191,-0.0198,-0.0203,-0.021,-0.0213,-0.0223,-0.0223,-0.022,-0.022,-0.0237,-0.0233,-0.0224,-0.0255,-0.0236,-0.0238,-0.0262,-0.0267,-0.0271,-0.0283,-0.0212,0,0,0,0,0,-0.0178,-0.0186,-0.019,-0.0201,-0.0202,-0.0208,-0.0214,-0.0217,-0.0223,-0.0227,-0.0231,-0.0236,-0.0246,-0.025,-0.0256,-0.0272,-0.0266,-0.0286,-0.029,-0.0294,-0.0304,-0.0322,-0.0329,-0.0255,-0.0255,-0.0255,0,0,-0.0184,-0.0187,-0.0193,-0.0203,-0.0207,-0.0224,-0.0211,-0.0222,-0.0241,-0.0226,-0.0252,-0.025,-0.0253,-0.0272,-0.028,-0.0271,-0.0306,-0.0296,-0.0299,-0.0307,-0.0325,-0.0332,-0.0338,-0.0256,-0.0256,-0.0256,0,0,-0.02,-0.0202,-0.0215,-0.0223,-0.023,-0.0236,-0.0241,-0.025,-0.0257,-0.0278,-0.0274,-0.0288,-0.0297,-0.031,-0.0315,-0.0346,-0.0327,-0.0341,-0.0374,-0.0391,-0.0398,-0.0403,-0.0382,-0.0385,-0.0344,-0.0344,-0.0344,0,-0.0209,-0.0226,-0.022,-0.0236,-0.025,-0.0245,-0.0268,-0.0277,-0.0291,-0.0304,-0.029,-0.0322,-0.0321,-0.0357,-0.0364,-0.0359,-0.0346,-0.0354,-0.0397,-0.0403,-0.0408,-0.0385,-0.0388,-0.0346,-0.0346,-0.0346,-0.0345,0,-0.0235,-0.0252,-0.0259,-0.0281,-0.0295,-0.0312,-0.0322,-0.0338,-0.0344,-0.0354,-0.0383,-0.0381,-0.0403,-0.0402,-0.0391,-0.043,-0.04,-0.0399,-0.0385,-0.0418,-0.0391,-0.0394,-0.0349,-0.0348,-0.0348,-0.0347,0,0,-0.0253,-0.0274,-0.028,-0.0298,-0.0321,-0.0336,-0.0369,-0.0398,-0.0425,-0.0432,-0.0469,-0.0481,-0.0476,-0.0482,-0.0472,-0.0482,-0.0497,-0.0454,-0.0454,-0.0433,-0.0503,-0.0449,-0.0446,-0.0501,-0.0502,-0.0503,-0.0461,0,-0.0279,-0.0313,-0.0323,-0.0368,-0.0387,-0.0401,-0.0433,-0.046,-0.0475,-0.0507,-0.0511,-0.0537,-0.0507,-0.0517,-0.0525,-0.0514,-0.051,-0.0507,-0.0475,-0.0474,-0.0423,-0.045,-0.0507,-0.0463,-0.0464,-0.0464,-0.0465,0,-0.0309,-0.0326,-0.0368,-0.041,-0.0421,-0.0451,-0.0504,-0.0531,-0.0569,-0.0581,-0.0605,-0.0604,-0.0628,-0.0594,-0.059,-0.0585,-0.0547,-0.0526,-0.0524,-0.0466,-0.0426,-0.043,-0.0469,-0.0469,-0.0469,-0.0468,-0.0468,0,-0.0323,-0.0364,-0.0398,-0.0413,-0.0456,-0.0486,-0.0514,-0.0557,-0.058,-0.063,-0.0648,-0.0674,-0.0684,-0.0665,-0.0615,-0.0607,-0.0593,-0.058,-0.0488,-0.0481,-0.0525,-0.052,-0.0571,-0.0571,-0.0571,-0.0571,-0.0572,0,-0.0348,-0.0379,-0.0406,-0.0426,-0.0473,-0.0501,-0.0554,-0.0586,-0.0628,-0.0657,-0.0683,-0.0698,-0.0703,-0.0689,-0.064,-0.0569,-0.0613,-0.0498,-0.0479,-0.0537,-0.0534,-0.0525,-0.052,-0.057,-0.057,-0.0571,-0.0571,0,-0.0361,-0.0379,-0.0418,-0.0462,-0.0479,-0.0513,-0.0567,-0.0602,-0.0639,-0.0678,-0.0695,-0.0724,-0.0702,-0.0677,-0.0644,-0.0593,-0.054,-0.0496,-0.0541,-0.0524,-0.0405,-0.0402,-0.0401,-0.0399,-0.0397,-0.0396,-0.0394,0,-0.0371,-0.0389,-0.0435,-0.0458,-0.0481,-0.0527,-0.0561,-0.0605,-0.0632,-0.0677,-0.0692,-0.0695,-0.0696,-0.061,-0.0585,-0.0498,-0.0471,-0.0446,-0.0444,-0.0412,-0.0393,-0.0393,-0.0393,-0.0392,-0.0391,-0.0391,-0.039,0,-0.0386,-0.0402,-0.0429,-0.0467,-0.0505,-0.0547,-0.059,-0.0604,-0.0649,-0.0676,-0.0675,-0.0649,-0.0616,-0.0575,-0.0512,-0.0447,-0.0479,-0.0427,-0.043,-0.0428,-0.0401,-0.0384,-0.0386,-0.0384,-0.0385,-0.0386,-0.0386,0,-0.0395,-0.0413,-0.0442,-0.0477,-0.0521,-0.056,-0.0582,-0.0603,-0.0626,-0.0657,-0.0648,-0.0629,-0.063,-0.0544,-0.0486,-0.0426,-0.0399,-0.0379,-0.0384,-0.039,-0.0401,-0.0365,-0.0328,0,0,0,0,0,-0.0402,-0.042,-0.0451,-0.0493,-0.0535,-0.056,-0.0602,-0.0619,-0.0642,-0.0629,-0.0635,-0.0594,-0.0517,-0.0502,-0.0426,-0.0448,-0.0395,-0.0357,-0.0376,-0.0351,-0.0358,-0.0368,0,0,0,0,0,0,-0.0409,-0.0437,-0.0447,-0.0495,-0.0524,-0.0575,-0.06,-0.0618,-0.0604,-0.0615,-0.0573,-0.0561,-0.0489,-0.0553,-0.042,-0.0407,-0.0404,-0.0328,-0.0326,-0.0348,-0.0354,-0.0359,-0.0372,0,0,0,0,0]}]]